Location: Newark
(51.0089°N, 21.5817°E)
Time: 22:02:17
(UTC+00:00)

XW-2F - Visible Passes

Search period start: 21 February 2020 00:00
Search period end: 02 March 2020 00:00
Orbit: 501 x 524 km, 97.5° (Epoch: 21 February)

Date Brightness Start Highest point End Pass type
(mag) Time Alt. Az. Time Alt. Az. Time Alt. Az.
21 Feb ? 03:41:09 10° NE 03:43:23 15° E 03:45:37 10° SE visible
22 Feb ? 03:26:48 10° ENE 03:27:28 10° E 03:28:06 10° E visible
22 Feb ? 04:58:14 10° NNE 05:02:00 82° WNW 05:05:45 10° SSW visible
23 Feb ? 04:42:30 10° NNE 04:46:15 67° ESE 04:49:58 10° S visible
23 Feb ? 17:03:21 10° WSW 17:05:02 13° W 17:06:43 10° WNW visible
24 Feb ? 04:26:50 10° NNE 04:30:27 44° E 04:34:04 10° S visible
24 Feb ? 16:46:31 10° SW 16:49:07 18° W 16:51:44 10° NW visible
25 Feb ? 04:11:16 10° NNE 04:14:38 30° E 04:17:59 10° SSE visible
26 Feb ? 03:55:50 10° NE 03:58:46 21° E 04:01:42 10° SE visible
27 Feb ? 03:40:38 10° NE 03:42:52 15° E 03:45:06 10° SE visible
28 Feb ? 03:26:18 10° ENE 03:26:56 10° E 03:27:33 10° E visible
29 Feb ? 04:41:57 10° NNE 04:45:42 66° ESE 04:49:27 10° S visible
29 Feb ? 17:02:43 10° WSW 17:04:28 13° W 17:06:13 10° WNW visible
01 Mar ? 04:26:16 10° NNE 04:29:54 44° E 04:33:32 10° S visible
01 Mar ? 16:45:54 10° SW 16:48:32 18° W 16:51:12 10° NW visible
